STARLINK-32287, 60358

Orbit data source: Space-Track

STARLINK-32287, 60358 is a payload satellite owned by SpaceX/Seattle (US) in LEO that was launched on Sun, 04 Aug 2024 UTC via an FALCON 9 launch vehicle from the Air Force Western Test Range (AFWTR). Payload-class satellites include a variety of spacecraft equipped with specific instruments for various scientific and technological missions. These include communications satellites like Starlink; space stations such as the ISS; scientific satellites like the Hubble; Earth observation satellites from companies like Planet Labs, Umbra, and HawkEye 360; GPS; miniature CubeSats for education and research; and military/defense satellites.

Loading next visibility...
Identifier
60358, 2024-138D
Orbit
LEO
Country
Flag of USUS
Related business
Manufacturer
SpaceX/Seattle
Mission
Operational Commercial Communications
Bus & Motor
STARLINK V2M, Unknown motor
Mass
730 kg wet, ~700 kg dry
Launch date (UTC)
2024-08-04 (1 year ago)
Launch vehicle
FALCON 9
Launch site
Air Force Western Test Range (AFWTR)
Object type
Payload
Rocket body
Debris
Shape & HBR
Box + 2 Pan, 14.5 m
Radar Cross Section
33.884 m², Large (>1 m²)

Expand to show TLE details & history
Last TLE update: 7 hours ago

TLE from 7 hours ago
0 STARLINK-32287
1 60358U 24138D   25258.58311728 -.00000559  00000-0 -67531-5 0  9995
2 60358  53.1609  43.2697 0000575  85.6831 274.4235 15.30199389 63810
Epoch: 2025-09-15T13:59Z
TLE epoch observation values (Epoch: 2025-09-15T13:59:41.333Z)
Latitude
-0.00003°
Longitude
-161.43824°
Altitude
476.086 km
Speed
7.629 km/s
True Right ascension
02h 53m 04s
True Declination
0° 00' 00"
Sunlit
Object was in full shadow at epoch
Visualization orbit readout
Latitude
Unknown
Longitude
Unknown
Altitude
Unknown
Speed
Unknown
Apparent Right ascension
Unknown
Apparent Declination
Unknown
Sunlit
N/A
Visualization observer readout
Local Sidereal Time
13:51:59
Azimuth
Unknown
Elevation
Unknown
Doppler factor
Unknown
Orbital elements
Apogee altitude
475.867 km
Perigee altitude
475.079 km
Semi-major axis
6,853.61 km
Eccentricity
0.00006
Inclination
53.1609°
RAAN
43.2697°
Arg. of periapsis
85.6831°
True anomaly
274.41693°
Mean anomaly
274.4235°
Eccentric anomaly
274.42022°
Mean motion
3.82529 °/min
Orbital period
94.11 mins
BSTAR
-0.0000067531
Loading maneuver chart data...
Computing Atmospheric mass density...
Loading historical data...
Loading historical data...
Loading historical data...
Loading historical data...
Loading historical data...
Loading historical data...
Loading historical data...

Documentation

Showing up to 5 results
|